User: anonymous   Login
Location: Unspecified
(0.0000°N, 0.0000°E)
Time: 21:21:22
(UTC+02:00)
Language:

Iridium 75 - Orbit

View from above orbital plane
View from above orbital plane
View from above satellite
View from above satellite

Ground track
Ground track

The orbit data is extracted from the following two-line orbital elements,

1 25346U 98032E   15108.31741006  .00000703  00000-0  24384-3 0  9993
2 25346 086.4016 194.6660 0002332 096.9757 326.6803 14.34218453886311
Epoch (UTC): 18 April 2015 07:37:04
Eccentricity: 0.0002332
inclination: 86.4016°
perigee height: 776 km
apogee height: 779 km
right ascension of ascending node: 194.6660°
argument of perigee: 96.9757°
revolutions per day: 14.34218453
mean anomaly at epoch: 326.6803°
orbit number at epoch: 88631

The dashed part of the orbit path shows where the satellite is in the earth's shadow,  

DLR